Regional Weather Roundup
Issued by NWS

Current Version | Previous Version | Text Only | Print | Product List | Glossary On
Versions: 1 2 3 4 5 6 7 8 9 10 11 12 13 14 15 16 17 18 19 20 21 22 23 24 25 26 27 28 29 30 31 32 33 34 35 36 37 38 39 40 41 42 43 44 45 46 47 48 49 50
000
ASUS42 KTBW 231416
RWRFL
FLORIDA REGIONAL WEATHER ROUNDUP
NATIONAL WEATHER SERVICE TAMPA BAY RUSKIN FL
900 AM EST THU NOV 23 2017

NOTE: "FAIR" INDICATES FEW OR NO CLOUDS BELOW 12,000 FEET WITH NO
SIGNIFICANT WEATHER AND/OR OBSTRUCTIONS TO VISIBILITY.

FLZ001>010-012>015-112-114-115-231500-
PANHANDLE FLORIDA

CITY           SKY/WX    TMP DP  RH WIND       PRES   REMARKS
PENSACOLA      SUNNY     47  35  63 N13       30.03R WCI  41
PENSACOLA NAS  SUNNY     48  34  58 N12       30.03R WCI  43
CRESTVIEW      MOSUNNY   47  37  68 N6        30.04R WCI  44
DUKE FIELD     FAIR      47  37  69 N6        30.02R WCI  44
VALPARAISO     CLOUDY    50  37  61 N8        30.01R
MARY ESTHER    CLOUDY    49  38  67 N14       30.00R WCI  43
PANAMA CITY    CLOUDY    57  44  62 N6        29.99R
TYNDALL AFB    CLOUDY    58  46  64 N12       29.98R
APALACHICOLA   CLOUDY    58  58 100 NE10      29.96R

STATION/POSITION SKY/WX   TEMP    WIND        PRES    WAVE   SWELL
                          AIR SEA DIR/SP/G            HT/PER HT/PER
                          (F)     (DEG/KT/KT) (MB)    (FT/S) (FT/S)
29.2N   88.2W              62 77   10/ 16/ 21 1017.0R   6/ 6
28.8N   86.0W              68 76   20/ 17/ 19 1013.4R   5/ 6
PANAMA CITY BEAC           55 69   30/  8/ 13 1015.8R
TOWER C                    63      40/ 17/ 21 1014.0R
28.5N   84.5W              68 75   40/ 23/ 29   N/A     6/ 6

$$
FLZ011-016>038-118-127-128-134-139-239-231500-
NORTH FLORIDA

CITY           SKY/WX    TMP DP  RH WIND       PRES   REMARKS
MARIANNA       CLOUDY    57  42  57 N6        30.00S
TALLAHASSEE    CLOUDY    56  55  97 N7        29.97S FOG
PERRY          RAIN      62  61  97 CALM      29.96R
LIVE OAK       PTSUNNY   61  61 100 NE7       29.97S
CROSS CITY     LGT RAIN  60  60  99 NE13      29.99S FOG
LAKE CITY      RAIN      59  59 100 NE7       29.96S
GAINESVILLE    HVY RAIN  62  61  96 NE10      29.97R FOG
WILLISTON      MOSUNNY   64  64 100 NE3G13    29.93S FOG
PALATKA        RAIN      63  63 100 NE7G16    29.95R
MAYPORT NAS    RAIN     N/A N/A N/A NE18      29.98R
JACKSONVILLE   LGT RAIN  63  62  97 NE13      29.98F FOG
JAX NAS        RAIN      64  63  96 N16       29.98S FOG
JAX CECIL      RAIN      63  63 100 N12       29.97S
ST AUGUSTINE   HVY RAIN  64  63  94 N16       29.96R VSB 1
PALM COAST     RAIN      66  66 100 E8        29.91F

STATION/POSITION SKY/WX   TEMP    WIND        PRES    WAVE   SWELL
                          AIR SEA DIR/SP/G            HT/PER HT/PER
                          (F)     (DEG/KT/KT) (MB)    (FT/S) (FT/S)
SHELL POINT      NOT AVBL
KEATON BEACH               61      60/  6/  9 1013.9R
CEDAR KEY                  63      50/ 11/ 13 1013.1F
FERNANDINA                 63 66  360/  9/ 14 1016.4R
30.7N   81.3W                 67                N/A     4/ 5
MAYPORT                    62 67   10/  4/  9 1015.6S
31.4N   80.9W              64 67   50/ 21/ 25 1015.6R   6/ 6
ST AUGUSTINE               66 69   10/ 18/ 21 1014.2R

$$
FLZ040-043>046-052-053-057-058-063-144-231500-
INTERIOR CENTRAL FLORIDA

CITY           SKY/WX    TMP DP  RH WIND       PRES   REMARKS
OCALA          RAIN      64  63  96 N9        29.93R FOG
THE VILLAGES     N/A     68  68 100 E7        29.81R FOG
LEESBURG       LGT RAIN  70  69  97 CALM      29.90S
SANFORD        CLOUDY    70  67  90 SE9       29.89R
ORLANDO EXEC   CLOUDY    72  69  90 SE10      29.89S
ORLANDO INTL   CLOUDY    71  69  93 SE9       29.90R
KISSIMMEE      CLOUDY    72  69  90 S10       29.91R
WINTER HAVEN   CLOUDY    71  68  90 SE9       29.91R
LAKELAND       MOSUNNY   70  70 100 SE9       29.90S
SEBRING        FAIR      73  69  88 SE3       29.91S
OKEECHOBEE     MOSUNNY   73  70  88 SE8       29.90S

$$
FLZ041-047-054-059-064-141-147-231500-
EAST CENTRAL FLORIDA

CITY           SKY/WX    TMP DP  RH WIND       PRES   REMARKS
ORMOND BEACH   LGT RAIN  68  66  94 E6        29.91S FOG
DAYTONA BEACH  LGT RAIN  68  67  96 E7        29.90F
DELAND         HVY RAIN  66  66 100 E9        29.87F FOG
NEW SMYRNA BEA PTSUNNY   73  66  78 SE14      29.89S
JFK SPACE CTR  MOSUNNY   74  73  97 SE8       29.89S
TITUSVILLE     PTSUNNY   75  73  94 SE12      29.91S
CAPE CANAVERAL MOSUNNY   75  70  83 SE10      29.89S
PATRICK AFB    MOSUNNY   75  73  94 SE9       29.90S
MELBOURNE      CLOUDY    76  70  82 SE7       29.91R
VERO BEACH     CLOUDY    76  70  82 S8        29.90S
FT PIERCE      MOSUNNY   77  70  79 S7        29.90S
STUART         MOSUNNY   79  72  78 S3        29.92S

STATION/POSITION SKY/WX   TEMP    WIND        PRES    WAVE   SWELL
                          AIR SEA DIR/SP/G            HT/PER HT/PER
                          (F)     (DEG/KT/KT) (MB)    (FT/S) (FT/S)
28.5N   80.2W              75 79  120/ 14/ 16 1013.0R   5/ 9   3/ 9
TRIDENT PIER                      130/  6/ 11   N/A
27.5N   80.2W                 78                N/A     4/ 8   2/11

$$
FLZ050-056-061-142-242-148-248-149-249-151-251-155-255-
160-260-231500-
WEST CENTRAL FLORIDA

CITY           SKY/WX    TMP DP  RH WIND       PRES   REMARKS
CRYSTAL RIVER  LGT RAIN  64  64 100 N3        29.91S
INVERNESS      RAIN      66  66 100 N5        29.91S
BROOKSVILLE    LGT RAIN  68  67  96 NE3       29.90S
CLEARWATER AIR RAIN      68  68 100 E6        29.86F
ST PETE CLEARW LGT RAIN  70  68  93 SE10G25   29.86F
TAMPA INTL     CLOUDY    71  68  90 SE6       29.88S
TAMPA EXEC     LGT RAIN  70  68  94 SE3       29.89S
PLANT CITY     DRIZZLE   72  68  88 SE6       29.90F
MACDILL AFB    LGT RAIN  70  68  94 SE10      29.87S
PETER O KNIGHT LGT RAIN N/A N/A N/A SE6       29.88F
ST PETERSBURG  RAIN      70  68  93 S12       29.85F
SARASOTA       LGT RAIN  69  68  96 S12       29.86F
VENICE         FAIR      72  68  88 SE6       29.90R

STATION/POSITION SKY/WX   TEMP    WIND        PRES    WAVE   SWELL
                          AIR SEA DIR/SP/G            HT/PER HT/PER
                          (F)     (DEG/KT/KT) (MB)    (FT/S) (FT/S)
27.3N   84.2W                 77                N/A     5/ 6
CLEARWATER BEACH           70 69  110/  6/ 11 1011.2F
MIDDLE TAMPA BAY           69     150/ 11/ 13 1011.3F
VENICE                     71 72  130/  7/  8 1012.1R

$$
FLZ066-069-070-075>078-162-262-165-265-231500-
SOUTHWEST FLORIDA AND KEYS

CITY           SKY/WX    TMP DP  RH WIND       PRES   REMARKS
PUNTA GORDA    LGT RAIN  72  69  90 SW3       29.92S FOG
FT MYERS       PTSUNNY   75  70  84 S8        29.89R
SOUTHWEST INTL CLOUDY    74  71  91 SE10      29.90R
NAPLES         MOSUNNY   76  71  85 SE10      29.89R
MARCO ISLAND   CLOUDY    78  72  81 SE10G17   29.90R
IMMOKALEE      FAIR      77  72  83 VRB7      29.91R
MARATHON       MOSUNNY   82  71  69 S9        29.90S
KEY WEST NAS     N/A     77  32  19 MISG      29.91R
KEY WEST INTL  MOSUNNY   77  72  84 S3        29.91S

STATION/POSITION SKY/WX   TEMP    WIND        PRES    WAVE   SWELL
                          AIR SEA DIR/SP/G            HT/PER HT/PER
                          (F)     (DEG/KT/KT) (MB)    (FT/S) (FT/S)
NAPLES                        75  160/  8/ 11 1012.1R
DRY TORTUGAS               78     170/ 15/ 16 1012.3R
SAND KEY                   78                 1013.3R
MOLASSES REEF              79 80  160/ 13/ 15 1013.2R

$$
FLZ067-068-071>074-168-172>174-231500-
SOUTHEAST FLORIDA

CITY           SKY/WX    TMP DP  RH WIND       PRES   REMARKS
W PALM BEACH   MOSUNNY   78  69  73 S10       29.91S
BOCA RATON     MOSUNNY   79  70  73 S12       29.91S
FT LAUDER-EXEC MOSUNNY   78  73  84 SE10      29.91S
FT LAUDERDALE  MOSUNNY   79  72  79 S13       29.90S
POMPANO BEACH  SUNNY     79  72  79 S14       29.91S
PEMBROKE PINES MOSUNNY   80  71  74 S9        29.92S
OPA LOCKA      MOSUNNY   79  74  84 S12       29.91S
MIAMI          PTSUNNY   80  72  76 SE10      29.91S
WEST KENDALL   SUNNY     78  71  79 S6        29.91R
HOMESTEAD      MOSUNNY   79  75  87 SE12      29.91R

STATION/POSITION SKY/WX   TEMP    WIND        PRES    WAVE   SWELL
                          AIR SEA DIR/SP/G            HT/PER HT/PER
                          (F)     (DEG/KT/KT) (MB)    (FT/S) (FT/S)
PORT EVERGLADES            79     140/ 10/ 14 1012.7S
VIRGINIA KEY               79 77  130/  9/ 11 1012.4S
LAKE WORTH                 78 79  160/ 15/ 18 1013.7R
FOWEY ROCKS                78 79  140/ 15/ 17 1013.4R
SETTLEMENT POINT           75     100/  8/  9 1013.6F

$$




USA.gov is the U.S. government's official web portal to all federal, state and local government web resources and services.